FREGAT DEB, 46619

Orbit data source: Space-Track

FREGAT DEB, 46619 is space debris in LEO originally from a launch on Mon, 18 Jul 2011 UTC launched from the Tyuratam Missile And Space Complex (TTMTR). Debris objects in space refer to the collection of defunct objects orbiting the Earth. Examples of debris include non-operational satellites, rocket bodies, and fragments generated from explosions, collisions, or faulty payload assembly.

Loading next visibility...
Identifier
46619, 2011-037MK
Orbit
LEO
Country
Flag of CISCIS
Related business
Manufacturer
Lavochkin
Mission
Spacecraft
Bus & Motor
Unknown
Mass
Unknown
Launch date (UTC)
2011-07-18 (14 years ago)
Launch vehicle
Unknown
Launch site
Tyuratam Missile And Space Complex (TTMTR)
Object type
Payload
Rocket body
Debris
Shape & HBR
Unknown shape, 0.1 m
Radar Cross Section
Small (<0.1 m²)

Expand to show TLE details & history
Last TLE update: 5 days ago

TLE from 5 days ago
0 FREGAT DEB
1 46619U 11037MK  25287.16668391  .00025691  00000-0  25313-1 0  9990
2 46619  51.0042  94.1143 1100933 234.4707 114.8564 12.31854209215996
Epoch: 2025-10-14T04:00Z
TLE epoch observation values (Epoch: 2025-10-14T04:00:01.489Z)
Latitude
-0.00007°
Longitude
11.14903°
Altitude
1,981.764 km
Speed
6.713 km/s
True Right ascension
06h 16m 27s
True Declination
0° 00' 00"
Sunlit
Object was in daylight at epoch
Visualization orbit readout
Latitude
Unknown
Longitude
Unknown
Altitude
Unknown
Speed
Unknown
Apparent Right ascension
Unknown
Apparent Declination
Unknown
Sunlit
N/A
Visualization observer readout
Local Sidereal Time
13:23:55
Azimuth
Unknown
Elevation
Unknown
Doppler factor
Unknown
Orbital elements
Apogee altitude
2,413.8 km
Perigee altitude
669.922 km
Semi-major axis
7,919.998 km
Eccentricity
0.11009
Inclination
51.0042°
RAAN
94.1143°
Arg. of periapsis
234.4707°
True anomaly
125.61326°
Mean anomaly
114.8564°
Eccentric anomaly
120.30246°
Mean motion
3.07933 °/min
Orbital period
116.91 mins
BSTAR
0.025313
Loading maneuver chart data...
Computing Atmospheric mass density...
Loading historical data...
Loading historical data...
Loading historical data...
Loading historical data...
Loading historical data...
Loading historical data...
Loading historical data...

Documentation

Showing up to 5 results
|